• In Russia
  • List of Countries
  • For 7 days
  • Water Temperature
  • Weather Map
  • Weather Widgets
  • user-avatar
    Login

    Hourly Weather Saurimo

    Today, 18 February, Tuesday

    Time Temperature Precipitation Wind Pressure Humidity
    00:00 +19°C° 0 mm 0 mps 670 mmHg 94%
    01:00 +19°C° 0 mm 0 mps 670 mmHg 94%
    02:00 +21°C° 0.7 mm 1 mps 670 mmHg 95%
    03:00 +21°C° 0.7 mm 1 mps 670 mmHg 96%
    04:00 +20°C° 0.7 mm 1 mps 669 mmHg 97%
    05:00 +21°C° 0.2 mm 1 mps 670 mmHg 96%
    06:00 +21°C° 0.2 mm 1 mps 671 mmHg 96%
    07:00 +19°C° 0 mm 0 mps 671 mmHg 95%
    08:00 +20°C° 0.1 mm 0 mps 671 mmHg 94%
    09:00 +20°C° 0.1 mm 0 mps 671 mmHg 93%
    10:00 +21°C° 0.1 mm 0 mps 671 mmHg 92%
    11:00 +23°C° 0.1 mm 1 mps 671 mmHg 91%
    12:00 +23°C° 0.1 mm 1 mps 670 mmHg 89%
    13:00 +24°C° 0.1 mm 1 mps 669 mmHg 88%
    14:00 +25°C° 0 mm 1 mps 669 mmHg 81%
    15:00 +25°C° 0 mm 0 mps 669 mmHg 74%
    16:00 +26°C° 0 mm 0 mps 669 mmHg 66%
    17:00 +24°C° 0.6 mm 0 mps 669 mmHg 73%
    18:00 +22°C° 0.6 mm 0 mps 669 mmHg 80%
    19:00 +21°C° 0.6 mm 0 mps 669 mmHg 87%
    20:00 +22°C° 1.6 mm 1 mps 670 mmHg 90%
    21:00 +22°C° 1.6 mm 1 mps 670 mmHg 92%
    22:00 +22°C° 1.6 mm 1 mps 670 mmHg 95%
    23:00 +21°C° 0.9 mm 1 mps 670 mmHg 95%

    Tomorrow, 19 February, Wednesday

    Time Temperature Precipitation Wind Pressure Humidity
    00:00 +21°C° 0.9 mm 1 mps 670 mmHg 95%
    01:00 +19°C° 0.9 mm 0 mps 670 mmHg 95%
    02:00 +21°C° 0.9 mm 1 mps 669 mmHg 95%
    03:00 +20°C° 0.9 mm 1 mps 669 mmHg 96%
    04:00 +20°C° 0.9 mm 1 mps 669 mmHg 96%
    05:00 +20°C° 0.2 mm 1 mps 669 mmHg 95%
    06:00 +19°C° 0.2 mm 0 mps 670 mmHg 94%
    07:00 +19°C° 0.2 mm 0 mps 670 mmHg 93%
    08:00 +23°C° 0.5 mm 1 mps 671 mmHg 87%
    09:00 +25°C° 0.5 mm 1 mps 671 mmHg 81%
    10:00 +27°C° 0.5 mm 1 mps 671 mmHg 75%
    11:00 +28°C° 2.3 mm 1 mps 671 mmHg 76%
    12:00 +28°C° 2.3 mm 1 mps 670 mmHg 77%
    13:00 +28°C° 2.3 mm 1 mps 669 mmHg 77%
    14:00 +27°C° 2 mm 1 mps 669 mmHg 81%
    15:00 +27°C° 2 mm 1 mps 668 mmHg 84%
    16:00 +26°C° 2 mm 1 mps 668 mmHg 87%
    17:00 +25°C° 1.3 mm 1 mps 669 mmHg 90%
    18:00 +23°C° 1.3 mm 2 mps 669 mmHg 92%
    19:00 +21°C° 1.3 mm 2 mps 670 mmHg 95%
    20:00 +21°C° 0.8 mm 2 mps 670 mmHg 96%
    21:00 +21°C° 0.8 mm 2 mps 670 mmHg 97%
    22:00 +20°C° 0.8 mm 2 mps 671 mmHg 98%
    23:00 +20°C° 1.4 mm 2 mps 670 mmHg 98%

    Day after tomorrow, 20 February, Thursday

    Time Temperature Precipitation Wind Pressure Humidity
    00:00 +20°C° 1.4 mm 3 mps 670 mmHg 97%
    01:00 +20°C° 1.4 mm 3 mps 670 mmHg 97%
    02:00 +20°C° 0.9 mm 3 mps 669 mmHg 97%
    03:00 +20°C° 0.9 mm 3 mps 669 mmHg 97%
    04:00 +19°C° 0.9 mm 3 mps 669 mmHg 96%
    05:00 +20°C° 0.1 mm 3 mps 669 mmHg 96%
    06:00 +20°C° 0.1 mm 3 mps 670 mmHg 95%
    07:00 +20°C° 0.1 mm 2 mps 670 mmHg 95%
    08:00 +21°C° 0 mm 2 mps 670 mmHg 91%
    09:00 +23°C° 0 mm 2 mps 671 mmHg 87%
    10:00 +24°C° 0 mm 2 mps 671 mmHg 83%
    11:00 +25°C° 0 mm 2 mps 671 mmHg 80%
    12:00 +26°C° 0 mm 2 mps 670 mmHg 77%
    13:00 +26°C° 0 mm 1 mps 669 mmHg 74%
    14:00 +26°C° 0 mm 1 mps 669 mmHg 74%
    15:00 +27°C° 0 mm 1 mps 668 mmHg 74%
    16:00 +27°C° 0 mm 1 mps 668 mmHg 74%
    17:00 +23°C° 0.1 mm 0 mps 668 mmHg 79%
    18:00 +22°C° 0.1 mm 0 mps 668 mmHg 85%
    19:00 +20°C° 0.1 mm 0 mps 668 mmHg 90%
    20:00 +20°C° 0 mm 0 mps 669 mmHg 92%
    21:00 +19°C° 0 mm 0 mps 669 mmHg 93%
    22:00 +21°C° 0 mm 1 mps 669 mmHg 94%
    23:00 +21°C° 0 mm 1 mps 669 mmHg 95%

    21 February, Friday

    Time Temperature Precipitation Wind Pressure Humidity
    00:00 +21°C° 0 mm 1 mps 669 mmHg 95%
    01:00 +20°C° 0 mm 1 mps 669 mmHg 96%
    02:00 +20°C° 0 mm 1 mps 668 mmHg 96%
    03:00 +20°C° 0 mm 1 mps 668 mmHg 96%
    04:00 +20°C° 0 mm 1 mps 668 mmHg 96%
    05:00 +21°C° 0 mm 1 mps 669 mmHg 94%
    06:00 +21°C° 0 mm 1 mps 669 mmHg 93%
    07:00 +20°C° 0 mm 0 mps 670 mmHg 91%
    14:00 +30°C° 0 mm 0 mps 670 mmHg 55%
    15:00 +29°C° 0 mm 0 mps 669 mmHg 58%
    16:00 +29°C° 0 mm 0 mps 668 mmHg 62%
    17:00 +28°C° 0.1 mm 1 mps 668 mmHg 68%
    18:00 +26°C° 0.1 mm 1 mps 668 mmHg 75%
    19:00 +24°C° 0.1 mm 1 mps 668 mmHg 82%
    20:00 +24°C° 0.2 mm 1 mps 668 mmHg 84%
    21:00 +21°C° 0.2 mm 0 mps 669 mmHg 86%
    22:00 +20°C° 0.2 mm 0 mps 669 mmHg 88%
    23:00 +20°C° 0.4 mm 0 mps 669 mmHg 90%

    22 February, Saturday

    Time Temperature Precipitation Wind Pressure Humidity
    00:00 +20°C° 0.4 mm 0 mps 669 mmHg 92%
    01:00 +19°C° 0.4 mm 0 mps 669 mmHg 93%
    02:00 +19°C° 0.3 mm 0 mps 669 mmHg 95%
    03:00 +21°C° 0.3 mm 1 mps 669 mmHg 96%
    04:00 +21°C° 0.3 mm 1 mps 668 mmHg 97%
    05:00 +21°C° 0 mm 1 mps 669 mmHg 95%
    06:00 +22°C° 0 mm 1 mps 669 mmHg 94%
    07:00 +23°C° 0 mm 1 mps 670 mmHg 93%
    08:00 +25°C° 0 mm 1 mps 671 mmHg 83%
    09:00 +28°C° 0 mm 1 mps 671 mmHg 73%
    10:00 +30°C° 0 mm 1 mps 672 mmHg 63%
    11:00 +31°C° 0 mm 1 mps 671 mmHg 59%
    12:00 +32°C° 0 mm 1 mps 671 mmHg 55%
    13:00 +33°C° 0 mm 1 mps 670 mmHg 51%
    14:00 +32°C° 0 mm 1 mps 670 mmHg 54%
    15:00 +32°C° 0 mm 2 mps 669 mmHg 57%
    16:00 +31°C° 0 mm 2 mps 669 mmHg 61%
    17:00 +28°C° 0.3 mm 2 mps 669 mmHg 70%
    18:00 +26°C° 0.3 mm 2 mps 669 mmHg 79%
    19:00 +24°C° 0.3 mm 2 mps 669 mmHg 88%
    20:00 +23°C° 0.5 mm 1 mps 669 mmHg 91%
    21:00 +22°C° 0.5 mm 1 mps 669 mmHg 93%
    22:00 +22°C° 0.5 mm 1 mps 669 mmHg 96%
    23:00 +21°C° 0 mm 1 mps 669 mmHg 96%

    23 February, Sunday

    Time Temperature Precipitation Wind Pressure Humidity
    00:00 +21°C° 0 mm 1 mps 669 mmHg 95%
    01:00 +21°C° 0 mm 1 mps 668 mmHg 95%
    02:00 +21°C° 0 mm 1 mps 668 mmHg 95%
    03:00 +21°C° 0 mm 1 mps 668 mmHg 96%
    04:00 +21°C° 0 mm 1 mps 668 mmHg 96%
    05:00 +21°C° 0 mm 1 mps 669 mmHg 94%
    06:00 +20°C° 0 mm 0 mps 669 mmHg 93%
    07:00 +20°C° 0 mm 0 mps 670 mmHg 92%
    08:00 +24°C° 0 mm 1 mps 670 mmHg 84%
    09:00 +27°C° 0 mm 1 mps 670 mmHg 75%
    10:00 +29°C° 0 mm 2 mps 671 mmHg 67%
    11:00 +29°C° 1.8 mm 2 mps 670 mmHg 70%
    12:00 +29°C° 1.8 mm 2 mps 669 mmHg 73%
    13:00 +29°C° 1.8 mm 3 mps 669 mmHg 75%
    14:00 +28°C° 1.2 mm 2 mps 669 mmHg 78%
    15:00 +27°C° 1.2 mm 2 mps 668 mmHg 82%
    16:00 +27°C° 1.2 mm 2 mps 668 mmHg 85%
    17:00 +25°C° 0.4 mm 2 mps 668 mmHg 87%
    18:00 +24°C° 0.4 mm 1 mps 668 mmHg 90%
    19:00 +23°C° 0.4 mm 1 mps 669 mmHg 92%
    20:00 +22°C° 0 mm 1 mps 669 mmHg 93%
    21:00 +22°C° 0 mm 1 mps 669 mmHg 93%
    22:00 +22°C° 0 mm 1 mps 670 mmHg 94%
    23:00 +22°C° 0 mm 1 mps 669 mmHg 94%
    Show more